Skip Page Navigation
NASA JPL Caltech
NASA Logo - Jet Propulsion Laboratory + View the NASA Portal
+ Center for Near-Earth Object Studies
JPL Home Earth Solar System Stars & Galaxies Technology
JPL Solar System Dynamics
BODIES ORBITS EPHEMERIDES TOOLS PHYSICAL DATA DISCOVERY FAQ SITE MAP
JPL Small-Body Database Browser
Search: [ help ]  
6549 Skryabin (1988 PX1)
Classification: Main-belt Asteroid          SPK-ID: 2006549
Ephemeris | Orbit Diagram | Orbital Elements | Mission Design | Physical Parameters | Discovery Circumstances ]

[ show orbit diagram ]
Orbital Elements at Epoch 2459000.5 (2020-May-31.0) TDB
Reference: JPL 36 (heliocentric ecliptic J2000)
 Element Value Uncertainty (1-sigma)   Units 
e .1302167395967557 3.0638e-08  
a 2.348589977771014 7.1561e-09 au
q 2.042764248216055 7.2287e-08 au
i 7.061132308642182 3.4722e-06 deg
node 159.6036207216669 2.6355e-05 deg
peri 178.3370528099256 2.9306e-05 deg
M 301.9210028902016 1.3664e-05 deg
tp 2459212.592757952774
(2020-Dec-29.09275795)
5.0102e-05 TDB
period 1314.647233295926
3.60
6.0086e-06
1.645e-08
d
yr
n .2738377192621104 1.2516e-09 deg/d
Q 2.654415707325972 8.088e-09 au
  Orbit Determination Parameters
   # obs. used (total)      2485  
   data-arc span      11782 days (32.26 yr)  
   first obs. used      1988-08-13  
   last obs. used      2020-11-15  
   planetary ephem.      DE431  
   SB-pert. ephem.      SB431-N16  
   condition code      0  
   norm. resid. RMS      .4513  
   source      ORB  
   producer      Otto Matic  
   solution date      2020-Dec-18 02:27:28  

Additional Information
 Earth MOID = 1.03361 au 
 Jupiter MOID = 2.71223 au 
 T_jup = 3.538 
[ show covariance matrix ]

Ephemeris | Orbit Diagram | Orbital Elements | Mission Design | Physical Parameters | Discovery Circumstances ]

Physical Parameter Table
Parameter Symbol Value Units Sigma Reference Notes
absolute magnitude H 13.7   n/a MPO473857  

6549 Skryabin (1988 PX1)          Discovered 1988-Aug-13 by Elst, E. W. at Haute Provence
Reference: DISCOVERY.DBLast Updated: 2003-08-29

Alternate Designations
 1988 PX1 = 1992 YH5 
Ephemeris | Orbit Diagram | Orbital Elements | Mission Design | Physical Parameters | Discovery Circumstances ]
ABOUT SSD CREDITS/AWARDS PRIVACY/COPYRIGHT GLOSSARY LINKS
FirstGov 2021-Jan-22 10:54 UT
(server date/time)  
NASA Home Page
Site Manager:   Ryan S. Park
Webmaster  Alan B. Chamberlin